Weather History for Logan, UT

Change the Weather History Date:

Friday, April 25, 2014

  Actual Average Record
Temperature  
Mean Temperature 51 °F -  
Max Temperature 60 °F 60 °F 83 °F (1977)
Min Temperature 42 °F 34 °F 24 °F (1961)
Degree Days  
Heating Degree Days 14    
Growing Degree Days 1 (Base 50)    
Moisture  
Dew Point 37 °F    
Average Humidity 62    
Maximum Humidity 96    
Minimum Humidity 32    
Precipitation  
Precipitation 0.28 in - - ()
Sea Level Pressure  
Sea Level Pressure 29.68 in    
Wind  
Wind Speed 6 mph (South)    
Max Wind Speed 21 mph    
Max Gust Speed 30 mph    
Visibility 10 miles    
Events Rain    
Averages and records for this station are not official NWS values.
T = Trace of Precipitation, MM = Missing Value Source: NWS Daily Summary

Daily Weather History Graph

Daily Weather History Graph

Search for Another Location

Airport:

Trip Planner

Search our weather history database for the weather conditions in past years. The results will help you decide how hot, cold, wet, or windy it might be!

Date:

Astronomy

Apr. 25, 2014 Rise Set
Actual Time 6:32 AM MDT 8:19 PM MDT
Civil Twilight 6:02 AM MDT 8:49 PM MDT
Nautical Twilight 5:26 AM MDT 9:25 PM MDT
Astronomical Twilight 4:47 AM MDT 10:04 PM MDT
Moon 4:25 AM MDT (4/25) 4:42 PM MDT (4/25)
Length of Visible Light 14h 46m
Length of Day
13h 47m
Waning Crescent, 15% of the Moon is Illuminated
Apr 25
Waning Crescent
Apr 29
New
May 6
First Quarter
May 14
Full
May 21
Last Quarter

Hourly Weather History & Observations

Time (MDT) Temp. Windchill Dew Point Humidity Pressure Visibility Wind Dir Wind Speed Gust Speed Precip Events Conditions
12:51 AM 46.0 °F 44.8 °F 36.0 °F 68% 29.83 in 10.0 mi NE 3.5 mph - N/A   Overcast
1:51 AM 45.0 °F 42.6 °F 36.0 °F 71% 29.83 in 10.0 mi North 4.6 mph - N/A   Overcast
2:51 AM 45.0 °F 43.5 °F 37.0 °F 74% 29.83 in 10.0 mi ENE 3.5 mph - N/A   Overcast
3:51 AM 45.0 °F 40.6 °F 37.0 °F 74% 29.78 in 10.0 mi NNE 8.1 mph - N/A   Overcast
4:51 AM 44.1 °F 39.5 °F 37.0 °F 76% 29.78 in 10.0 mi WSW 8.1 mph - N/A   Partly Cloudy
5:51 AM 43.0 °F 40.3 °F 37.0 °F 80% 29.76 in 10.0 mi South 4.6 mph - N/A   Scattered Clouds
6:51 AM 42.1 °F - 37.0 °F 82% 29.78 in 10.0 mi Calm Calm - N/A   Mostly Cloudy
7:51 AM 44.1 °F - 37.9 °F 79% 29.77 in 10.0 mi Calm Calm - N/A   Overcast
9:51 AM 48.9 °F - 39.0 °F 69% 29.73 in 10.0 mi SSW 6.9 mph - N/A   Mostly Cloudy
10:51 AM 53.1 °F - 39.0 °F 59% 29.70 in 10.0 mi Variable 3.5 mph - N/A   Clear
11:51 AM 55.0 °F - 39.0 °F 55% 29.67 in 10.0 mi NW 4.6 mph - N/A   Mostly Cloudy
12:51 PM 55.0 °F - 37.9 °F 53% 29.65 in 10.0 mi Calm Calm - N/A   Mostly Cloudy
1:51 PM 59.0 °F - 37.0 °F 44% 29.62 in 10.0 mi Calm Calm - N/A   Scattered Clouds
2:51 PM 59.0 °F - 32.0 °F 36% 29.60 in 10.0 mi North 6.9 mph - N/A   Overcast
3:17 PM 57.9 °F - 30.9 °F 36% 29.67 in 10.0 mi SSW 19.6 mph 29.9 mph N/A   Overcast
3:30 PM 57.9 °F - 32.0 °F 37% 29.66 in 10.0 mi SSE 17.3 mph 29.9 mph N/A   Overcast
3:51 PM 57.9 °F - 32.0 °F 37% 29.58 in 10.0 mi SSE 10.4 mph - N/A   Overcast
4:51 PM 59.0 °F - 32.0 °F 36% 29.53 in 10.0 mi SW 10.4 mph - 0.00 in   Overcast
5:51 PM 60.1 °F - 30.0 °F 32% 29.52 in 10.0 mi SSW 15.0 mph 23.0 mph 0.00 in   Overcast
6:51 PM 53.1 °F - 39.9 °F 61% 29.56 in 10.0 mi South 20.7 mph 27.6 mph 0.00 in Rain Light Rain
7:51 PM 50.0 °F - 42.1 °F 74% 29.57 in 6.0 mi SSE 12.7 mph - 0.02 in Rain Light Rain
9:51 PM 46.9 °F - 44.1 °F 90% 29.59 in 7.0 mi SSE 10.4 mph - N/A Rain Rain
10:51 PM 46.0 °F 43.1 °F 45.0 °F 96% 29.57 in 10.0 mi SE 5.8 mph - 0.26 in   Overcast